Regional Weather Roundup
Issued by NWS

Current Version | Previous Version | Text Only | Print | Product List | Glossary On
Versions: 1 2 3 4 5 6 7 8 9 10 11 12 13 14 15 16 17 18 19 20 21 22 23 24 25 26 27 28 29 30 31 32 33 34 35 36 37 38 39 40 41 42 43 44 45 46 47 48 49 50
000
ASUS43 KTOP 170908
RWRKS

WEATHER ROUNDUP FOR KANSAS
NATIONAL WEATHER SERVICE GOODLAND KS
400 AM CDT THU APR 17 2014

NOTE:  "FAIR" INDICATES FEW OR NO CLOUDS BELOW 12,000 FEET WITH NO
SIGNIFICANT WEATHER AND/OR OBSTRUCTIONS TO VISIBILITY.

KSZ001>006-013>018-027>032-041>047-171000-
NORTHWEST KANSAS

CITY           SKY/WX    TMP DP  RH WIND       PRES   REMARKS
GOODLAND       CLOUDY    33  30  88 E6        30.17S
HAYS           CLOUDY    36  25  64 NE12      30.21R WCI  27
HILL CITY      CLOUDY    34  27  75 NE14      30.21S WCI  25
RUSSELL        CLOUDY    35  27  72 N12       30.20S WCI  27
$$

KSZ061>065-074>080-084>089-171000-
SOUTHWEST KANSAS

CITY           SKY/WX    TMP DP  RH WIND       PRES   REMARKS
DODGE CITY     CLOUDY    41  33  73 NE13      30.15S
ELKHART          N/A     44  32  63 NE8         N/A
GARDEN CITY    LGT RAIN  42  37  82 E12       30.15R
GREAT BEND     CLOUDY    37  27  65 NE13      30.19R WCI  29
LIBERAL        CLOUDY    46  30  53 E13       30.11F
PRATT          CLOUDY    41  32  70 NE8       30.17R
$$

KSZ066>073-081>083-090>101-171000-
SOUTHEAST KANSAS

CITY           SKY/WX    TMP DP  RH WIND       PRES   REMARKS
CHANUTE        MOCLDY    45  35  68 N9        30.14R
HUTCHINSON     CLOUDY    40  29  64 N14       30.17R WCI  32
MEDICINE LODGE   N/A     54  33  45 NE13      30.12S
NEWTON         CLOUDY    37  27  65 N17       30.20R WCI  28
PARSONS        MOCLDY    45  36  70 N5        30.14R
WICHITA INTL   CLOUDY    43  31  62 N13       30.16R
WICHITA JABRA  CLOUDY    41  31  67 N15       30.16R
WICHITA MCCONL CLOUDY    42  33  72 N16       30.16R
WINFIELD       CLOUDY    46  35  65 N9        30.14R
$$

KSZ007>012-019>026-033>040-048>060-102>105-171000-
NORTHEAST KANSAS

CITY           SKY/WX    TMP DP  RH WIND       PRES   REMARKS
CONCORDIA      CLOUDY    35  27  72 N16G22    30.22R WCI  25
EMPORIA        CLOUDY    39  30  70 N13       30.17R WCI  31
LAWRENCE       CLOUDY    40  31  70 N12       30.17R WCI  33
MANHATTAN      CLOUDY    38  27  64 NW8       30.22R
OLATHE IND     MOCLDY    38  31  76 NW12      30.16R WCI  30
OLATHE EXE     MOCLDY    39  31  72 N9        30.14R
SALINA         MOCLDY    36  27  69 N10       30.23R WCI  28
TOPEKA BILLARD CLOUDY    39  30  70 NW7       30.19R
TOPEKA FORBES  CLOUDY    39  29  67 N12       30.17R WCI  32
$$



USA.gov is the U.S. government's official web portal to all federal, state and local government web resources and services.